sat.trackr.live / text

‹ back to catalog

COSMOS 2515

NORAD 41394 · 2016-020A

PAYLOAD ACTIVE UNKNOWN

§ Identity

Operator
Country
CIS
Launch date
2016-03-24
Launch site
PLMSC
Launch vehicle
Mass (kg)
RCS (m²)
5.62

External: N2YO · Heavens-Above · Gunter

§ Orbital elements

Epoch: 2026-05-25T02:14:01.642848Z

Period
95.50 min
Inclination
97.9775°
Eccentricity
0.0024261
Mean motion
15.07866245 rev/d
Perigee alt
525.9 km
Apogee alt
559.5 km
Semi-major
6,920.9 km
B*
9.3964e-5
RAAN
159.7001°
Arg perigee
24.5429°
Mean anomaly
335.6947°
Rev number
55,693

§ Raw data

COSMOS 25151 41394U 16020A   26145.09307457  .00001379  00000+0  93964-4 0  99972 41394  97.9775 159.7001 0024261  24.5429 335.6947 15.07866245556930

JSON: /api/v1/satellites/41394 · /tle

For live sub-satellite position, see the globe view (requires WebGL).

§ Visibility from observer

Set your observer location to see the next 7 days of passes ≥ 10°. The values pass through the URL so the page stays shareable.

No JS? Fill the form by hand. The geolocation button needs JavaScript.